Location: The C. Gantt Observatory
(33.6981°N, 81.6836°W)
Time: 18:07:28
(UTC-05:00)

Iridium 30 - Visible Passes

Search period start: 02 March 2015 00:00
Search period end: 12 March 2015 01:00
Orbit: 776 x 779 km, 86.4° (Epoch: 02 March)

Date Brightness Start Highest point End Pass type
(mag) Time Alt. Az. Time Alt. Az. Time Alt. Az.
02 Mar 5.9 19:24:14 10° NNE 19:29:05 39° E 19:33:57 10° SSE visible
02 Mar 8.0 21:05:55 10° NW 21:09:33 19° W 21:12:58 10° SW visible
03 Mar 6.7 18:51:33 10° NNE 18:55:18 21° ENE 18:59:14 10° SE visible
03 Mar 7.0 20:31:26 10° NNW 20:36:11 36° W 20:40:52 10° SSW visible
04 Mar 5.8 19:57:33 10° N 20:02:46 71° W 20:07:56 10° S visible
05 Mar 5.5 19:24:05 10° N 19:29:14 59° E 19:34:22 10° SSE visible
05 Mar 8.6 21:07:18 10° NW 21:09:30 12° W 21:11:21 10° WSW visible
06 Mar 6.3 18:51:02 10° NNE 18:55:33 30° E 19:00:09 10° SE visible
06 Mar 7.8 20:31:59 10° NNW 20:36:10 24° W 20:40:13 10° SW visible
07 Mar 6.6 19:57:48 10° NNW 20:02:48 46° W 20:07:44 10° SSW visible
08 Mar 5.5 20:24:05 10° N 20:29:20 89° E 20:34:33 10° S visible
09 Mar 5.8 19:50:46 10° NNE 19:55:45 45° E 20:00:44 10° SSE visible
09 Mar 8.4 21:32:53 10° NW 21:36:08 16° W 21:39:09 10° WSW visible
10 Mar 7.4 20:58:12 10° NNW 21:02:48 31° W 21:07:17 10° SW visible
11 Mar 6.1 20:24:14 10° N 20:29:23 61° W 20:34:30 10° SSW visible
